When you browse on this site, cookies collect data to enhance your experience and personalize the content and advertising you see.
Visit our Privacy Policy to learn more. By continuing to use the site, you agree to this use of cookies and data.
  • In Hungary
  • List of Countries
  • For 7 days
  • Water Temperature
  • Satellite Maps
  • Weather Map
  • News
  • Weather Widgets
  • user-avatar
    Login

    Hourly Weather Chik Ballapur

    Today, 21 November, Wednesday

    Time Temperature Precipitation Wind Pressure Humidity
    00:00 +20°C° 0 mm 2 mps 683 mmHg 90%
    01:00 +20°C° 0 mm 2 mps 683 mmHg 91%
    02:00 +19°C° 0 mm 2 mps 682 mmHg 92%
    03:00 +19°C° 0 mm 2 mps 682 mmHg 92%
    04:00 +19°C° 0 mm 2 mps 682 mmHg 91%
    05:00 +20°C° 0 mm 1 mps 682 mmHg 87%
    06:00 +20°C° 0 mm 2 mps 682 mmHg 82%
    07:00 +21°C° 0 mm 3 mps 683 mmHg 77%
    08:00 +22°C° 0 mm 4 mps 683 mmHg 72%
    09:00 +23°C° 0 mm 5 mps 683 mmHg 69%
    10:00 +26°C° 0 mm 5 mps 683 mmHg 65%
    11:00 +27°C° 0 mm 6 mps 683 mmHg 62%
    12:00 +27°C° 0.8 mm 6 mps 683 mmHg 65%
    13:00 +26°C° 0.8 mm 7 mps 682 mmHg 67%
    14:00 +26°C° 0.8 mm 7 mps 682 mmHg 70%
    15:00 +24°C° 0.6 mm 6 mps 681 mmHg 75%
    16:00 +23°C° 0.6 mm 6 mps 681 mmHg 81%
    17:00 +21°C° 0.6 mm 6 mps 681 mmHg 87%
    18:00 +21°C° 0.1 mm 6 mps 682 mmHg 88%
    19:00 +21°C° 0.1 mm 5 mps 682 mmHg 89%
    20:00 +21°C° 0.1 mm 5 mps 683 mmHg 90%
    21:00 +20°C° 0 mm 5 mps 683 mmHg 90%
    22:00 +20°C° 0 mm 5 mps 683 mmHg 91%
    23:00 +20°C° 0 mm 5 mps 683 mmHg 92%

    Tomorrow, 22 November, Thursday

    Time Temperature Precipitation Wind Pressure Humidity
    00:00 +20°C° 0 mm 4 mps 682 mmHg 92%
    01:00 +20°C° 0 mm 4 mps 682 mmHg 92%
    02:00 +20°C° 0 mm 4 mps 681 mmHg 93%
    03:00 +20°C° 0.1 mm 4 mps 681 mmHg 93%
    04:00 +20°C° 0.1 mm 4 mps 681 mmHg 92%
    05:00 +21°C° 0.1 mm 5 mps 682 mmHg 92%
    06:00 +21°C° 0.3 mm 5 mps 682 mmHg 92%
    07:00 +21°C° 0.3 mm 5 mps 683 mmHg 92%
    08:00 +21°C° 0.3 mm 5 mps 683 mmHg 91%
    09:00 +21°C° 0.6 mm 5 mps 683 mmHg 91%
    10:00 +21°C° 0.6 mm 5 mps 683 mmHg 92%
    11:00 +21°C° 0.6 mm 5 mps 683 mmHg 92%
    12:00 +21°C° 1.5 mm 6 mps 683 mmHg 91%
    13:00 +21°C° 1.5 mm 6 mps 682 mmHg 91%
    14:00 +21°C° 1.5 mm 6 mps 681 mmHg 90%
    15:00 +21°C° 2.3 mm 6 mps 681 mmHg 91%
    16:00 +21°C° 2.3 mm 6 mps 682 mmHg 92%
    17:00 +21°C° 2.3 mm 6 mps 682 mmHg 93%
    18:00 +21°C° 0.8 mm 6 mps 682 mmHg 93%
    19:00 +21°C° 0.8 mm 6 mps 683 mmHg 93%
    20:00 +21°C° 0.8 mm 6 mps 684 mmHg 93%
    21:00 +21°C° 0.1 mm 5 mps 684 mmHg 93%
    22:00 +20°C° 0.1 mm 5 mps 684 mmHg 93%
    23:00 +20°C° 0.1 mm 5 mps 684 mmHg 93%

    Day after tomorrow, 23 November, Friday

    Time Temperature Precipitation Wind Pressure Humidity
    00:00 +20°C° 0 mm 4 mps 684 mmHg 93%
    01:00 +20°C° 0 mm 4 mps 683 mmHg 94%
    02:00 +20°C° 0 mm 4 mps 683 mmHg 94%
    03:00 +20°C° 0.1 mm 4 mps 683 mmHg 94%
    04:00 +20°C° 0.1 mm 4 mps 683 mmHg 94%
    05:00 +20°C° 0.1 mm 4 mps 683 mmHg 94%
    06:00 +21°C° 0.1 mm 4 mps 684 mmHg 92%
    07:00 +21°C° 0.1 mm 5 mps 684 mmHg 90%
    08:00 +21°C° 0.1 mm 5 mps 685 mmHg 88%
    09:00 +22°C° 0.1 mm 5 mps 685 mmHg 83%
    10:00 +23°C° 0.1 mm 5 mps 685 mmHg 79%
    11:00 +25°C° 0.1 mm 5 mps 685 mmHg 74%
    12:00 +26°C° 0.2 mm 5 mps 684 mmHg 73%
    13:00 +26°C° 0.2 mm 5 mps 684 mmHg 72%
    14:00 +26°C° 0.2 mm 5 mps 683 mmHg 70%
    15:00 +26°C° 0.3 mm 5 mps 683 mmHg 74%
    16:00 +25°C° 0.3 mm 4 mps 683 mmHg 77%
    17:00 +23°C° 0.3 mm 4 mps 683 mmHg 80%
    18:00 +22°C° 0 mm 4 mps 683 mmHg 83%
    19:00 +22°C° 0 mm 3 mps 684 mmHg 86%
    20:00 +21°C° 0 mm 3 mps 685 mmHg 88%
    21:00 +20°C° 0 mm 3 mps 685 mmHg 90%
    22:00 +20°C° 0 mm 3 mps 685 mmHg 92%
    23:00 +20°C° 0 mm 2 mps 685 mmHg 93%

    24 November, Saturday

    Time Temperature Precipitation Wind Pressure Humidity
    00:00 +20°C° 0 mm 2 mps 684 mmHg 92%
    01:00 +20°C° 0 mm 2 mps 684 mmHg 91%
    02:00 +19°C° 0 mm 2 mps 683 mmHg 90%
    03:00 +19°C° 0 mm 2 mps 683 mmHg 89%
    04:00 +20°C° 0 mm 1 mps 683 mmHg 88%
    05:00 +20°C° 0 mm 1 mps 683 mmHg 87%
    06:00 +20°C° 0 mm 2 mps 684 mmHg 81%
    07:00 +21°C° 0 mm 2 mps 685 mmHg 75%
    08:00 +23°C° 0 mm 2 mps 686 mmHg 70%
    09:00 +25°C° 0 mm 3 mps 686 mmHg 62%
    10:00 +26°C° 0 mm 3 mps 686 mmHg 55%
    11:00 +28°C° 0 mm 4 mps 686 mmHg 48%
    12:00 +28°C° 0 mm 4 mps 685 mmHg 47%
    13:00 +28°C° 0 mm 3 mps 685 mmHg 47%
    14:00 +29°C° 0 mm 3 mps 684 mmHg 47%
    15:00 +28°C° 0 mm 3 mps 684 mmHg 53%
    16:00 +27°C° 0 mm 3 mps 683 mmHg 58%
    17:00 +26°C° 0 mm 3 mps 683 mmHg 64%
    18:00 +25°C° 0 mm 2 mps 684 mmHg 68%
    19:00 +24°C° 0 mm 2 mps 684 mmHg 73%
    20:00 +23°C° 0 mm 2 mps 685 mmHg 77%
    21:00 +21°C° 0 mm 2 mps 685 mmHg 81%
    22:00 +21°C° 0 mm 2 mps 685 mmHg 84%
    23:00 +20°C° 0 mm 2 mps 685 mmHg 87%

    25 November, Sunday

    Time Temperature Precipitation Wind Pressure Humidity
    00:00 +20°C° 0 mm 2 mps 684 mmHg 89%
    01:00 +21°C° 0 mm 1 mps 683 mmHg 90%
    02:00 +21°C° 0 mm 1 mps 683 mmHg 92%
    03:00 +20°C° 0 mm 1 mps 683 mmHg 92%
    04:00 +20°C° 0 mm 1 mps 683 mmHg 92%
    05:00 +20°C° 0 mm 1 mps 683 mmHg 92%
    06:00 +21°C° 0 mm 1 mps 684 mmHg 86%
    07:00 +23°C° 0 mm 1 mps 685 mmHg 81%
    08:00 +24°C° 0 mm 1 mps 685 mmHg 75%
    09:00 +25°C° 0 mm 2 mps 685 mmHg 68%
    10:00 +27°C° 0 mm 3 mps 685 mmHg 60%
    11:00 +28°C° 0 mm 4 mps 685 mmHg 53%
    12:00 +28°C° 0 mm 4 mps 684 mmHg 52%
    13:00 +28°C° 0 mm 3 mps 684 mmHg 50%
    14:00 +28°C° 0 mm 3 mps 683 mmHg 49%
    15:00 +28°C° 0 mm 3 mps 683 mmHg 53%
    16:00 +27°C° 0 mm 3 mps 683 mmHg 56%
    17:00 +26°C° 0 mm 3 mps 682 mmHg 60%
    18:00 +25°C° 0 mm 2 mps 683 mmHg 62%
    19:00 +24°C° 0 mm 2 mps 683 mmHg 63%
    20:00 +23°C° 0 mm 2 mps 684 mmHg 65%
    21:00 +23°C° 0 mm 2 mps 684 mmHg 68%
    22:00 +21°C° 0 mm 2 mps 683 mmHg 71%
    23:00 +21°C° 0 mm 2 mps 683 mmHg 74%

    26 November, Monday

    Time Temperature Precipitation Wind Pressure Humidity
    00:00 +20°C° 0 mm 2 mps 683 mmHg 77%
    01:00 +21°C° 0 mm 1 mps 682 mmHg 80%
    02:00 +20°C° 0 mm 1 mps 682 mmHg 83%
    03:00 +20°C° 0 mm 1 mps 682 mmHg 84%
    04:00 +20°C° 0 mm 1 mps 682 mmHg 86%
    05:00 +20°C° 0 mm 1 mps 682 mmHg 87%
    06:00 +21°C° 0 mm 1 mps 683 mmHg 82%
    07:00 +22°C° 0 mm 1 mps 683 mmHg 76%
    08:00 +23°C° 0 mm 1 mps 684 mmHg 71%
    09:00 +25°C° 0 mm 2 mps 684 mmHg 61%
    10:00 +26°C° 0 mm 3 mps 684 mmHg 51%
    11:00 +27°C° 0 mm 4 mps 684 mmHg 41%
    12:00 +28°C° 0 mm 4 mps 684 mmHg 40%
    13:00 +28°C° 0 mm 3 mps 683 mmHg 38%
    14:00 +28°C° 0 mm 3 mps 682 mmHg 37%
    15:00 +27°C° 0 mm 3 mps 682 mmHg 42%
    16:00 +26°C° 0 mm 3 mps 682 mmHg 46%
    17:00 +25°C° 0 mm 2 mps 682 mmHg 51%
    18:00 +24°C° 0 mm 2 mps 682 mmHg 53%
    19:00 +23°C° 0 mm 2 mps 683 mmHg 56%
    20:00 +20°C° 0 mm 2 mps 683 mmHg 58%
    21:00 +20°C° 0 mm 2 mps 683 mmHg 63%
    22:00 +19°C° 0 mm 2 mps 683 mmHg 68%
    23:00 +19°C° 0 mm 2 mps 682 mmHg 73%
    Show more